EDT,Max TemperatureF,Mean TemperatureF,Min TemperatureF,Max Dew PointF,MeanDew PointF,Min DewpointF,Max Humidity, Mean Humidity, Min Humidity, Max Sea Level PressureIn, Mean Sea Level PressureIn, Min Sea Level PressureIn, Max VisibilityMiles, Mean VisibilityMiles, Min VisibilityMiles, Max Wind SpeedMPH, Mean Wind SpeedMPH, Max Gust SpeedMPH,PrecipitationIn, CloudCover, Events, WindDirDegrees
2013-4-1,71,60,48,53,44,34,100,62,32,29.96,29.86,29.82,10,9,5,17,6,36,0.04,3,Rain,268
2013-4-2,60,47,35,34,26,19,87,47,22,30.15,30.09,30.01,10,10,2,15,3,25,0.00,0,,309
2013-4-3,59,47,37,26,19,17,46,32,20,30.30,30.24,30.15,10,10,10,10,5,16,0.00,1,,356
2013-4-4,48,42,37,36,30,17,96,71,31,30.35,30.17,29.96,10,7,2,16,10,22,0.63,6,Rain,38
2013-4-5,66,50,37,46,38,28,97,70,27,30.02,29.94,29.88,10,9,4,8,6,16,0.02,5,Rain,319
2013-4-6,66,50,37,35,30,26,83,47,24,30.26,30.18,30.03,10,10,10,13,4,17,0.00,0,,56
2013-4-7,73,55,37,43,38,34,89,53,30,30.26,30.18,30.10,10,10,10,20,5,25,0.00,0,,183
2013-4-8,79,66,52,54,50,46,93,60,36,30.15,30.10,30.04,10,10,10,16,5,23,0.00,1,,201
2013-4-9,84,70,55,56,53,51,90,58,33,30.17,30.10,30.05,10,10,10,12,5,,0.00,0,,201
2013-4-10,88,71,55,59,56,53,90,58,33,30.09,30.01,29.94,10,10,10,14,5,23,0.00,0,,206
2013-4-11,82,70,61,63,59,56,87,67,45,29.99,29.90,29.77,10,10,10,13,8,22,0.00,3,Rain,189
2013-4-12,82,73,64,66,60,40,94,70,35,29.77,29.69,29.58,10,9,1,16,10,26,0.30,5,Rain,204
2013-4-13,75,60,48,44,39,36,71,44,25,30.01,29.92,29.80,10,10,10,13,5,18,0.00,0,,265
2013-4-14,80,61,43,50,42,35,93,55,22,30.09,30.04,30.01,10,10,10,9,2,,0.00,1,Rain,162
2013-4-15,71,62,55,56,54,51,94,78,57,30.20,30.09,30.01,10,10,8,9,4,,0.06,8,Rain,57
2013-4-16,77,68,60,60,58,56,93,75,52,30.30,30.24,30.19,10,10,8,6,2,,0.00,5,,116
2013-4-17,81,67,55,62,58,54,97,74,45,30.22,30.17,30.11,10,10,8,8,1,,0.00,3,Rain,212
2013-4-18,79,70,62,61,58,55,87,68,45,30.19,30.11,30.02,10,10,10,12,6,18,0.00,4,,157
2013-4-19,81,72,62,66,63,54,94,82,60,30.03,29.83,29.71,10,8,0,29,10,44,0.77,7,Fog-Rain,191
2013-4-20,63,54,45,55,38,30,82,55,30,30.27,30.06,29.86,10,10,10,16,8,23,0.00,2,,302
2013-4-21,62,50,39,40,35,32,96,59,38,30.50,30.41,30.28,10,10,10,14,5,23,0.00,1,,48
2013-4-22,63,50,37,41,34,26,89,56,30,30.47,30.37,30.26,10,10,10,14,8,22,0.00,3,,42
2013-4-23,69,58,48,50,45,42,86,69,47,30.28,30.20,30.11,10,10,9,14,7,,0.00,4,Rain,34
2013-4-24,75,60,46,55,52,45,97,71,48,30.13,30.06,29.97,10,10,7,20,4,28,0.01,0,,203
2013-4-25,69,58,46,56,41,35,83,55,30,30.28,30.18,30.01,10,10,9,12,6,22,0.00,2,,320
2013-4-26,71,56,42,47,37,29,89,51,23,30.43,30.36,30.29,10,10,10,13,3,20,0.00,0,,5
2013-4-27,70,60,52,53,47,41,87,61,40,30.37,30.32,30.26,10,10,10,8,2,,0.00,6,Rain,205
2013-4-28,59,55,53,54,52,49,100,90,72,30.25,30.16,30.07,10,6,2,7,3,,0.87,8,Rain,69
2013-4-29,71,63,55,60,57,54,100,85,64,30.07,30.02,29.96,10,8,2,6,2,,0.55,7,Rain,158
2013-4-30,66,60,54,57,55,52,100,88,66,30.19,30.10,30.01,10,7,0,10,4,,0.01,7,Fog,31